Location: Beaver Brook Trail
(44.0290°N, 71.8137°W)
Time: 02:58:33
(UTC+00:00)

SR - Pass Details

Date: 14 November 2024
Orbit: 573 x 858 km, 66.7° (Epoch: 03 December)

Event Time Altitude Azimuth Distance (km) Brightness Sun altitude
Rises 11:08:51 0° 332° (NNW) 3,143 ? -6.3°
Reaches altitude 10° 11:11:15 10° 340° (NNW) 2,265 ? -5.9°
Maximum altitude 11:16:13 43° 52° (NE) 1,089 ? -5.1°
Drops below altitude 10° 11:21:31 10° 123° (ESE) 2,415 ? -4.2°
Sets 11:24:09 0° 130° (SE) 3,375 ? -3.7°
